EJU67HR LIML-LFPO

Flight info

Callsign EJU67HR
Flight time 1h 10m
Altitude 32000
Route ARLES DCT PUNSA DCT UNKIR DCT DJL
Aircraft A320/M-SDE2E3FGHIJ1RWXYZ/LB1

Departure

Time 2026-05-07 21:01
Airport Milano Linate Airport (LIML)

Arrival

Time 2026-05-07 22:12
Airport Paris-Orly Airport (LFPO)
Time Latitude Longitude Altitude Speed Heading
2026-05-07 20:30 45.45975 9.27966 360 ft 0 kts 360°
2026-05-07 20:51 45.45970 9.27966 360 ft 1 kts 360°
2026-05-07 20:51 45.45961 9.27966 360 ft 1 kts 360°
2026-05-07 20:51 45.45953 9.27966 360 ft 1 kts 360°
2026-05-07 20:52 45.45945 9.27966 360 ft 1 kts 360°
2026-05-07 20:52 45.45933 9.27966 360 ft 2 kts 360°
2026-05-07 20:52 45.45917 9.27966 363 ft 3 kts 360°
2026-05-07 20:52 45.45895 9.27966 360 ft 3 kts 360°
2026-05-07 20:53 45.45889 9.27966 360 ft 0 kts 360°
2026-05-07 20:54 45.45892 9.27966 360 ft 3 kts 360°
2026-05-07 20:55 45.45893 9.27966 360 ft 0 kts 360°
2026-05-07 20:55 45.45898 9.27973 364 ft 1 kts 52°
2026-05-07 20:56 45.45892 9.27980 360 ft 1 kts 141°
2026-05-07 20:56 45.45833 9.27982 360 ft 18 kts 180°
2026-05-07 20:56 45.45694 9.27980 360 ft 21 kts 181°
2026-05-07 20:56 45.45539 9.27977 360 ft 23 kts 181°
2026-05-07 20:57 45.45376 9.27973 360 ft 19 kts 189°
2026-05-07 20:57 45.45266 9.27890 362 ft 19 kts 204°
2026-05-07 20:57 45.45129 9.27875 360 ft 21 kts 174°
2026-05-07 20:57 45.44971 9.27894 364 ft 24 kts 169°
2026-05-07 20:58 45.44801 9.27946 365 ft 26 kts 176°
2026-05-07 20:58 45.44614 9.27963 360 ft 28 kts 175°
2026-05-07 20:58 45.44418 9.27985 367 ft 29 kts 175°
2026-05-07 20:58 45.44220 9.28006 360 ft 26 kts 176°
2026-05-07 20:59 45.44039 9.28025 367 ft 27 kts 175°
2026-05-07 20:59 45.43848 9.28046 361 ft 28 kts 176°
2026-05-07 20:59 45.43646 9.28067 364 ft 30 kts 176°
2026-05-07 20:59 45.43472 9.28072 364 ft 14 kts 210°
2026-05-07 21:00 45.43443 9.27954 361 ft 0 kts 266°
2026-05-07 21:00 45.43442 9.27934 361 ft 7 kts 266°
2026-05-07 21:00 45.43451 9.27833 368 ft 12 kts 308°
2026-05-07 21:00 45.43494 9.27815 362 ft 3 kts 355°
2026-05-07 21:01 45.43564 9.27807 362 ft 34 kts 355°
2026-05-07 21:01 45.44089 9.27752 361 ft 112 kts 356°
2026-05-07 21:01 45.45060 9.27649 513 ft 154 kts 354°
2026-05-07 21:01 45.46134 9.27517 1237 ft 157 kts 354°
2026-05-07 21:02 45.47239 9.27377 1941 ft 162 kts 353°
2026-05-07 21:02 45.48372 9.27243 2636 ft 165 kts 354°
2026-05-07 21:02 45.49522 9.27104 3369 ft 165 kts 356°
2026-05-07 21:02 45.50688 9.26977 3957 ft 176 kts 356°
2026-05-07 21:03 45.51989 9.26838 4352 ft 199 kts 356°
2026-05-07 21:03 45.53463 9.26681 4766 ft 225 kts 356°
2026-05-07 21:03 45.55098 9.26504 5379 ft 244 kts 356°
2026-05-07 21:03 45.56811 9.26314 6309 ft 250 kts 356°
2026-05-07 21:04 45.57967 9.26184 6959 ft 253 kts 355°
2026-05-07 21:04 45.59698 9.25685 7891 ft 258 kts 336°
2026-05-07 21:04 45.61178 9.24228 8858 ft 264 kts 313°
2026-05-07 21:04 45.62145 9.21908 9484 ft 283 kts 285°
2026-05-07 21:05 45.62627 9.18153 10428 ft 301 kts 279°
2026-05-07 21:05 45.62868 9.16111 10763 ft 314 kts 279°
2026-05-07 21:05 45.63245 9.12997 11582 ft 321 kts 279°
2026-05-07 21:05 45.63634 9.09845 12547 ft 323 kts 279°
2026-05-07 21:06 45.64029 9.06672 13528 ft 325 kts 279°
2026-05-07 21:06 45.64485 9.03499 14413 ft 328 kts 285°
2026-05-07 21:06 45.65361 9.00468 15191 ft 334 kts 297°
2026-05-07 21:06 45.66603 8.97640 15987 ft 338 kts 301°
2026-05-07 21:07 45.67855 8.94834 16798 ft 341 kts 301°
2026-05-07 21:07 45.69132 8.91955 17595 ft 344 kts 301°
2026-05-07 21:07 45.70421 8.89040 18368 ft 348 kts 300°
2026-05-07 21:07 45.71719 8.86101 19050 ft 351 kts 300°
2026-05-07 21:08 45.73027 8.83134 19744 ft 354 kts 300°
2026-05-07 21:08 45.74348 8.80135 20450 ft 357 kts 300°
2026-05-07 21:08 45.75677 8.77113 21139 ft 360 kts 300°
2026-05-07 21:08 45.77019 8.74062 21842 ft 363 kts 300°
2026-05-07 21:09 45.78372 8.70983 22543 ft 367 kts 300°
2026-05-07 21:09 45.79736 8.67875 23233 ft 370 kts 300°
2026-05-07 21:09 45.81114 8.64728 23859 ft 374 kts 300°
2026-05-07 21:09 45.82502 8.61553 24441 ft 377 kts 299°
2026-05-07 21:10 45.83901 8.58354 25036 ft 380 kts 299°
2026-05-07 21:10 45.85120 8.55566 25538 ft 382 kts 299°
2026-05-07 21:10 45.85841 8.53914 25848 ft 382 kts 299°
2026-05-07 21:10 45.87217 8.50752 26419 ft 384 kts 298°
2026-05-07 21:11 45.88630 8.47494 26964 ft 385 kts 298°
2026-05-07 21:11 45.90046 8.44220 27533 ft 387 kts 298°
2026-05-07 21:11 45.92904 8.37601 28563 ft 392 kts 298°
2026-05-07 21:12 45.94345 8.34260 29084 ft 394 kts 298°
2026-05-07 21:12 45.95789 8.30894 29556 ft 397 kts 298°
2026-05-07 21:12 45.97243 8.27500 29973 ft 400 kts 298°
2026-05-07 21:12 45.98690 8.24123 30386 ft 402 kts 298°
2026-05-07 21:13 46.00159 8.20685 30781 ft 405 kts 297°
2026-05-07 21:13 46.01636 8.17225 31138 ft 407 kts 298°
2026-05-07 21:13 46.03128 8.13735 31456 ft 410 kts 298°
2026-05-07 21:13 46.04616 8.10242 31884 ft 409 kts 297°
2026-05-07 21:14 46.06099 8.06756 32017 ft 407 kts 297°
2026-05-07 21:14 46.07550 8.03342 32043 ft 391 kts 297°
2026-05-07 21:14 46.08756 7.99954 32043 ft 372 kts 292°
2026-05-07 21:14 46.09873 7.96607 32049 ft 370 kts 292°
2026-05-07 21:15 46.12099 7.89940 32043 ft 370 kts 292°
2026-05-07 21:15 46.14323 7.83252 32034 ft 370 kts 292°
2026-05-07 21:16 46.16541 7.76567 32041 ft 369 kts 292°
2026-05-07 21:16 46.18754 7.69876 32043 ft 370 kts 292°
2026-05-07 21:17 46.20967 7.63196 32029 ft 369 kts 292°
2026-05-07 21:17 46.23174 7.56510 32024 ft 369 kts 292°
2026-05-07 21:18 46.25379 7.49828 32040 ft 368 kts 292°
2026-05-07 21:18 46.27575 7.43140 32045 ft 368 kts 291°
2026-05-07 21:19 46.29758 7.36437 32047 ft 368 kts 292°
2026-05-07 21:19 46.31937 7.29736 32046 ft 368 kts 291°
2026-05-07 21:20 46.34114 7.23042 32052 ft 367 kts 292°
2026-05-07 21:20 46.36294 7.16336 32037 ft 369 kts 291°
2026-05-07 21:21 46.38472 7.09609 32027 ft 369 kts 291°
2026-05-07 21:21 46.40646 7.02873 32018 ft 369 kts 291°
2026-05-07 21:22 46.42815 6.96119 32011 ft 370 kts 291°
2026-05-07 21:22 46.44985 6.89362 32015 ft 370 kts 291°
2026-05-07 21:23 46.47150 6.82599 32015 ft 370 kts 291°
2026-05-07 21:23 46.49320 6.75820 32012 ft 370 kts 291°
2026-05-07 21:24 46.51476 6.69069 32008 ft 371 kts 291°
2026-05-07 21:24 46.53638 6.62262 32003 ft 371 kts 291°
2026-05-07 21:25 46.55799 6.55447 32014 ft 371 kts 291°
2026-05-07 21:25 46.57953 6.48627 32015 ft 371 kts 291°
2026-05-07 21:26 46.60107 6.41797 32014 ft 372 kts 291°
2026-05-07 21:26 46.62259 6.34958 32014 ft 372 kts 291°
2026-05-07 21:27 46.64409 6.28098 32025 ft 373 kts 291°
2026-05-07 21:27 46.66549 6.21224 32026 ft 373 kts 291°
2026-05-07 21:28 46.68675 6.14396 32023 ft 373 kts 291°
2026-05-07 21:28 46.70821 6.07515 32036 ft 373 kts 291°
2026-05-07 21:29 46.72965 6.00621 32031 ft 373 kts 291°
2026-05-07 21:29 46.75103 5.93719 32027 ft 374 kts 291°
2026-05-07 21:30 46.77230 5.86807 32026 ft 374 kts 291°
2026-05-07 21:30 46.79352 5.79887 32025 ft 374 kts 291°
2026-05-07 21:31 46.81705 5.73113 32027 ft 378 kts 302°
2026-05-07 21:31 46.85344 5.67510 32027 ft 383 kts 313°
2026-05-07 21:32 46.89239 5.62191 32040 ft 383 kts 313°
2026-05-07 21:32 46.93125 5.56859 32046 ft 383 kts 313°
2026-05-07 21:33 46.97011 5.51515 32044 ft 383 kts 312°
2026-05-07 21:33 47.00891 5.46159 32034 ft 383 kts 313°
2026-05-07 21:34 47.04738 5.40836 32035 ft 383 kts 312°
2026-05-07 21:34 47.08609 5.35474 32048 ft 383 kts 312°
2026-05-07 21:35 47.12476 5.30105 32044 ft 382 kts 312°
2026-05-07 21:35 47.16340 5.24736 32042 ft 382 kts 312°
2026-05-07 21:36 47.18281 5.22039 31935 ft 386 kts 312°
2026-05-07 21:36 47.20232 5.19317 31691 ft 387 kts 312°
2026-05-07 21:36 47.22185 5.16595 31435 ft 386 kts 312°
2026-05-07 21:36 47.24129 5.13878 31177 ft 385 kts 312°
2026-05-07 21:37 47.26063 5.11165 30927 ft 384 kts 312°
2026-05-07 21:37 47.27983 5.08440 30690 ft 382 kts 311°
2026-05-07 21:37 47.29842 5.05669 30443 ft 380 kts 310°
2026-05-07 21:37 47.31662 5.02861 30200 ft 379 kts 309°
2026-05-07 21:38 47.33463 5.00037 29926 ft 377 kts 309°
2026-05-07 21:38 47.35259 4.97219 29647 ft 376 kts 309°
2026-05-07 21:38 47.37054 4.94416 29366 ft 375 kts 310°
2026-05-07 21:38 47.38848 4.91628 29082 ft 374 kts 310°
2026-05-07 21:39 47.40645 4.88843 28799 ft 373 kts 310°
2026-05-07 21:39 47.42432 4.86079 28523 ft 372 kts 310°
2026-05-07 21:39 47.44214 4.83326 28251 ft 370 kts 310°
2026-05-07 21:39 47.45975 4.80599 27942 ft 364 kts 310°
2026-05-07 21:40 47.47711 4.77906 27516 ft 360 kts 310°
2026-05-07 21:40 47.49429 4.75237 27133 ft 357 kts 310°
2026-05-07 21:40 47.51180 4.72513 27049 ft 375 kts 310°
2026-05-07 21:40 47.53018 4.69648 27067 ft 389 kts 310°
2026-05-07 21:41 47.54850 4.66799 27062 ft 374 kts 310°
2026-05-07 21:41 47.56623 4.64044 27068 ft 367 kts 310°
2026-05-07 21:41 47.58354 4.61348 27074 ft 365 kts 310°
2026-05-07 21:41 47.60097 4.58623 27078 ft 365 kts 310°
2026-05-07 21:42 47.61842 4.55889 27069 ft 365 kts 310°
2026-05-07 21:42 47.63586 4.53155 27071 ft 365 kts 310°
2026-05-07 21:42 47.65330 4.50419 27068 ft 365 kts 310°
2026-05-07 21:42 47.67078 4.47678 27074 ft 365 kts 310°
2026-05-07 21:43 47.68822 4.44940 27073 ft 365 kts 310°
2026-05-07 21:43 47.70565 4.42200 27069 ft 365 kts 310°
2026-05-07 21:43 47.72307 4.39461 27078 ft 365 kts 310°
2026-05-07 21:43 47.74047 4.36721 27072 ft 364 kts 310°
2026-05-07 21:44 47.75788 4.33979 27077 ft 364 kts 310°
2026-05-07 21:44 47.77524 4.31241 27070 ft 364 kts 310°
2026-05-07 21:44 47.79262 4.28504 26888 ft 364 kts 310°
2026-05-07 21:44 47.80993 4.25777 26629 ft 362 kts 310°
2026-05-07 21:45 47.82716 4.23054 26371 ft 360 kts 310°
2026-05-07 21:45 47.84430 4.20341 26121 ft 360 kts 310°
2026-05-07 21:45 47.86139 4.17621 25873 ft 359 kts 309°
2026-05-07 21:45 47.87611 4.14660 25599 ft 352 kts 297°
2026-05-07 21:46 47.88639 4.11401 25187 ft 345 kts 286°
2026-05-07 21:46 47.89234 4.07971 24717 ft 341 kts 279°
2026-05-07 21:46 47.89724 4.04525 24265 ft 339 kts 280°
2026-05-07 21:46 47.90224 4.01091 23809 ft 338 kts 280°
2026-05-07 21:47 47.90725 3.97681 23300 ft 337 kts 280°
2026-05-07 21:47 47.91225 3.94277 22839 ft 334 kts 280°
2026-05-07 21:47 47.91717 3.90908 22403 ft 331 kts 280°
2026-05-07 21:47 47.92204 3.87567 21962 ft 329 kts 280°
2026-05-07 21:48 47.92685 3.84246 21542 ft 327 kts 280°
2026-05-07 21:48 47.93161 3.80947 21116 ft 325 kts 280°
2026-05-07 21:48 47.93634 3.77660 20698 ft 323 kts 280°
2026-05-07 21:48 47.94103 3.74394 20282 ft 321 kts 280°
2026-05-07 21:49 47.94569 3.71144 19865 ft 320 kts 280°
2026-05-07 21:49 47.95029 3.67904 19461 ft 319 kts 280°
2026-05-07 21:49 47.95488 3.64670 19054 ft 318 kts 280°
2026-05-07 21:49 47.95945 3.61451 18649 ft 317 kts 281°
2026-05-07 21:50 47.96561 3.58296 18227 ft 318 kts 291°
2026-05-07 21:50 47.97638 3.55423 17808 ft 318 kts 304°
2026-05-07 21:50 47.99104 3.52958 17418 ft 317 kts 312°
2026-05-07 21:50 48.00651 3.50614 17028 ft 316 kts 312°
2026-05-07 21:51 48.02186 3.48279 16639 ft 314 kts 312°
2026-05-07 21:51 48.03711 3.45952 16258 ft 313 kts 312°
2026-05-07 21:51 48.04717 3.44415 16003 ft 312 kts 312°
2026-05-07 21:51 48.06723 3.41348 15496 ft 311 kts 312°
2026-05-07 21:52 48.08235 3.39033 15115 ft 311 kts 312°
2026-05-07 21:52 48.09742 3.36723 14730 ft 310 kts 312°
2026-05-07 21:52 48.11248 3.34412 14358 ft 310 kts 312°
2026-05-07 21:52 48.12755 3.32100 13973 ft 310 kts 312°
2026-05-07 21:53 48.13768 3.30540 13753 ft 308 kts 312°
2026-05-07 21:53 48.15239 3.28272 13341 ft 308 kts 312°
2026-05-07 21:53 48.16724 3.25985 12958 ft 305 kts 312°
2026-05-07 21:53 48.18202 3.23710 12594 ft 303 kts 312°
2026-05-07 21:54 48.19668 3.21460 12206 ft 301 kts 312°
2026-05-07 21:54 48.21128 3.19220 11849 ft 299 kts 312°
2026-05-07 21:54 48.22569 3.17007 11549 ft 295 kts 312°
2026-05-07 21:54 48.23996 3.14808 11253 ft 293 kts 312°
2026-05-07 21:55 48.25412 3.12624 10944 ft 291 kts 311°
2026-05-07 21:55 48.26821 3.10445 10645 ft 290 kts 311°
2026-05-07 21:55 48.28222 3.08276 10343 ft 289 kts 311°
2026-05-07 21:55 48.29617 3.06119 10102 ft 287 kts 311°
2026-05-07 21:56 48.31012 3.03971 10063 ft 287 kts 311°
2026-05-07 21:56 48.32408 3.01816 10068 ft 288 kts 311°
2026-05-07 21:56 48.33804 2.99651 10072 ft 288 kts 311°
2026-05-07 21:56 48.35201 2.97484 10069 ft 289 kts 311°
2026-05-07 21:57 48.36597 2.95321 10069 ft 289 kts 311°
2026-05-07 21:57 48.37998 2.93150 10071 ft 289 kts 311°
2026-05-07 21:57 48.39394 2.90978 10073 ft 289 kts 311°
2026-05-07 21:57 48.40790 2.88801 10078 ft 288 kts 311°
2026-05-07 21:58 48.42179 2.86635 10074 ft 287 kts 311°
2026-05-07 21:58 48.43568 2.84469 10073 ft 287 kts 310°
2026-05-07 21:58 48.44768 2.82095 10076 ft 284 kts 296°
2026-05-07 21:58 48.45492 2.79359 10076 ft 280 kts 281°
2026-05-07 21:59 48.45725 2.76460 10076 ft 278 kts 270°
2026-05-07 21:59 48.45802 2.73579 10076 ft 279 kts 270°
2026-05-07 21:59 48.45886 2.70658 10076 ft 279 kts 270°
2026-05-07 21:59 48.45972 2.67747 10076 ft 279 kts 270°
2026-05-07 22:00 48.46058 2.64829 10076 ft 279 kts 270°
2026-05-07 22:00 48.46156 2.61906 9914 ft 279 kts 271°
2026-05-07 22:00 48.46263 2.58999 9699 ft 277 kts 271°
2026-05-07 22:00 48.46360 2.56104 9488 ft 277 kts 271°
2026-05-07 22:01 48.46446 2.53212 9275 ft 276 kts 271°
2026-05-07 22:01 48.46569 2.50328 9060 ft 276 kts 274°
2026-05-07 22:01 48.46750 2.47461 8854 ft 275 kts 275°
2026-05-07 22:01 48.46938 2.44593 8642 ft 274 kts 275°
2026-05-07 22:02 48.47114 2.41735 8446 ft 274 kts 274°
2026-05-07 22:02 48.47276 2.38881 8263 ft 273 kts 274°
2026-05-07 22:02 48.47425 2.36028 8084 ft 273 kts 274°
2026-05-07 22:02 48.47564 2.33181 7905 ft 272 kts 274°
2026-05-07 22:03 48.47699 2.30337 7730 ft 272 kts 274°
2026-05-07 22:03 48.47832 2.27498 7553 ft 271 kts 274°
2026-05-07 22:03 48.47965 2.24658 7378 ft 271 kts 274°
2026-05-07 22:03 48.48094 2.21829 7192 ft 270 kts 274°
2026-05-07 22:04 48.48221 2.19007 7018 ft 270 kts 274°
2026-05-07 22:04 48.48385 2.16190 6841 ft 269 kts 281°
2026-05-07 22:04 48.49082 2.13606 6644 ft 266 kts 304°
2026-05-07 22:04 48.50345 2.11618 6281 ft 261 kts 319°
2026-05-07 22:05 48.51723 2.09844 5840 ft 259 kts 320°
2026-05-07 22:05 48.53071 2.08121 5674 ft 247 kts 320°
2026-05-07 22:05 48.54338 2.06500 5603 ft 231 kts 320°
2026-05-07 22:05 48.55530 2.04977 5512 ft 218 kts 320°
2026-05-07 22:06 48.56665 2.03526 5421 ft 211 kts 320°
2026-05-07 22:06 48.57778 2.02102 5326 ft 209 kts 319°
2026-05-07 22:06 48.58945 2.00850 5226 ft 209 kts 340°
2026-05-07 22:06 48.60386 2.00804 5130 ft 210 kts 20°
2026-05-07 22:07 48.61510 2.02171 4759 ft 213 kts 59°
2026-05-07 22:07 48.62220 2.04148 4402 ft 214 kts 63°
2026-05-07 22:07 48.62902 2.06133 4135 ft 212 kts 63°
2026-05-07 22:07 48.63585 2.08071 3859 ft 211 kts 62°
2026-05-07 22:08 48.64279 2.10018 3572 ft 210 kts 63°
2026-05-07 22:08 48.64974 2.11964 3292 ft 209 kts 63°
2026-05-07 22:08 48.65652 2.13861 3000 ft 201 kts 63°
2026-05-07 22:08 48.66294 2.15657 2769 ft 187 kts 63°
2026-05-07 22:09 48.66900 2.17357 2501 ft 182 kts 63°
2026-05-07 22:09 48.67492 2.19019 2246 ft 177 kts 63°
2026-05-07 22:09 48.68056 2.20600 2040 ft 163 kts 63°
2026-05-07 22:09 48.68571 2.22047 1817 ft 150 kts 64°
2026-05-07 22:10 48.69054 2.23399 1566 ft 142 kts 63°
2026-05-07 22:10 48.69515 2.24686 1352 ft 137 kts 63°
2026-05-07 22:10 48.69957 2.25947 1173 ft 136 kts 63°
2026-05-07 22:10 48.70403 2.27207 1030 ft 136 kts 63°
2026-05-07 22:11 48.70849 2.28464 841 ft 135 kts 62°
2026-05-07 22:11 48.71299 2.29709 678 ft 135 kts 63°
2026-05-07 22:11 48.71742 2.30963 479 ft 134 kts 62°
2026-05-07 22:11 48.72187 2.32208 313 ft 133 kts 63°
2026-05-07 22:12 48.72545 2.33250 293 ft 75 kts 62°
2026-05-07 22:12 48.72719 2.33740 297 ft 42 kts 62°
2026-05-07 22:12 48.72777 2.34100 295 ft 32 kts 82°
2026-05-07 22:12 48.72808 2.34434 295 ft 33 kts 82°
2026-05-07 22:13 48.72836 2.34737 298 ft 25 kts 82°
2026-05-07 22:13 48.72860 2.34992 295 ft 24 kts 81°
2026-05-07 22:13 48.72884 2.35238 296 ft 21 kts 82°
2026-05-07 22:13 48.72901 2.35419 294 ft 16 kts 82°
2026-05-07 22:14 48.72879 2.35548 294 ft 12 kts 158°
2026-05-07 22:14 48.72798 2.35585 295 ft 12 kts 165°
2026-05-07 22:14 48.72765 2.35598 297 ft 1 kts 166°
2026-05-07 22:14 48.72767 2.35615 296 ft 5 kts 67°
2026-05-07 22:15 48.72817 2.35681 296 ft 7 kts 41°
2026-05-07 22:15 48.72824 2.35691 293 ft 0 kts 41°